{"data":{"norad_id":60380,"epoch":"2026-05-25T04:18:24.501600Z","epoch_age_seconds":70126,"freshness":"FRESH","line1":"1 60380U 24140B   26145.17945025  .00000085  00000+0  11303-3 0  9992","line2":"2 60380  88.9700 282.1344 0014625  79.3348 280.9449 13.51005825 89471","mean_motion":13.51005825,"eccentricity":0.0014625,"inclination_deg":88.97,"raan_deg":282.1344,"arg_perigee_deg":79.3348,"mean_anomaly_deg":280.9449,"bstar":0.00011303,"rev_number":8947,"period_min":106.58725324149,"perigee_km":1057.6693857435,"apogee_km":1079.4509749961,"semimajor_km":7446.6971803698,"source":"CELESTRAK","updated_at":"2026-05-25T13:38:02.037877Z"}}